Location: Haliburton Scout Reserve
(45.0900°N, 78.3200°W)
Time: 14:56:24
(UTC-04:00)

Courier 1B Rocket - Pass Details

Date: 08 February 2023
Orbit: 920 x 1202 km, 28.2° (Epoch: 27 March)

Event Time Altitude Azimuth Distance (km) Brightness Sun altitude
Rises 16:28:23 0° 238° (WSW) 3,658 10.5 9.0°
Reaches altitude 10° 16:32:04 10° 219° (SW) 2,667 9.0 8.5°
Maximum altitude 16:35:54 17° 181° (S) 2,190 7.4 7.9°
Drops below altitude 10° 16:39:41 10° 144° (SE) 2,610 7.2 7.3°
Sets 16:43:14 0° 124° (SE) 3,544 7.7 6.8°
